Time,TemperatureF,DewpointF,PressureIn,WindDirection,WindDirectionDegrees,WindSpeedMPH,WindSpeedGustMPH,Humidity,HourlyPrecipIn,Conditions,Clouds,dailyrainin,SoftwareType,DateUTC
2013-02-03 00:00:00,8.7,4.1,30.00,SSW,202,1.0,0.0,81,0.00,,CLR,-99.99,VWS V14.01,2013-02-03 05:00:00,
2013-02-03 00:01:00,8.7,4.1,29.99,SSW,202,1.0,0.0,81,0.00,,CLR,-99.99,VWS V14.01,2013-02-03 05:01:00,
2013-02-03 00:03:00,8.6,4.0,30.00,SSW,202,1.0,0.0,81,0.00,,CLR,-99.99,VWS V14.01,2013-02-03 05:03:00,
2013-02-03 00:04:00,8.6,4.0,30.00,SSW,202,1.0,0.0,81,0.00,,CLR,-99.99,VWS V14.01,2013-02-03 05:04:00,
2013-02-03 00:09:00,8.6,4.0,29.99,SSW,202,1.0,0.0,81,0.00,,CLR,-99.99,VWS V14.01,2013-02-03 05:09:00,
2013-02-03 00:15:00,8.4,3.5,29.99,SSW,202,1.0,0.0,80,0.00,,CLR,-99.99,VWS V14.01,2013-02-03 05:15:00,
2013-02-03 00:20:00,8.2,3.3,30.00,SSW,202,1.0,0.0,80,0.00,,CLR,-99.99,VWS V14.01,2013-02-03 05:20:00,
2013-02-03 00:25:00,8.0,3.1,29.99,SSW,202,1.0,0.0,80,0.00,,CLR,-99.99,VWS V14.01,2013-02-03 05:25:00,
2013-02-03 00:30:00,7.8,2.9,29.99,SSW,202,1.0,0.0,80,0.00,,CLR,-99.99,VWS V14.01,2013-02-03 05:30:00,
2013-02-03 00:35:00,7.7,2.8,29.99,SSW,202,1.0,0.0,80,0.00,,CLR,-99.99,VWS V14.01,2013-02-03 05:35:00,
2013-02-03 00:40:00,7.5,2.6,29.99,SSW,202,1.0,0.0,80,0.00,,CLR,-99.99,VWS V14.01,2013-02-03 05:40:00,
2013-02-03 00:45:00,7.5,2.6,29.99,SSW,202,1.0,0.0,80,0.00,,CLR,-99.99,VWS V14.01,2013-02-03 05:45:00,
2013-02-03 00:51:00,7.3,2.4,29.99,SSW,202,1.0,0.0,80,0.00,,CLR,-99.99,VWS V14.01,2013-02-03 05:51:00,
2013-02-03 00:56:00,7.3,2.7,29.99,SSW,202,1.0,0.0,81,0.00,,CLR,-99.99,VWS V14.01,2013-02-03 05:56:00,
2013-02-03 01:02:00,6.9,2.3,29.99,SSW,202,1.0,0.0,81,0.00,,CLR,-99.99,VWS V14.01,2013-02-03 06:02:00,
2013-02-03 01:08:00,6.9,2.3,29.99,SSW,202,1.0,0.0,81,0.00,,CLR,-99.99,VWS V14.01,2013-02-03 06:08:00,
2013-02-03 01:14:00,6.6,2.0,29.99,SSW,202,1.0,0.0,81,0.00,,CLR,-99.99,VWS V14.01,2013-02-03 06:14:00,
2013-02-03 01:20:00,6.6,2.0,29.99,SSW,202,1.0,0.0,81,0.00,,CLR,-99.99,VWS V14.01,2013-02-03 06:20:00,
2013-02-03 01:25:00,6.6,2.0,29.99,SSW,202,1.0,0.0,81,0.00,,CLR,-99.99,VWS V14.01,2013-02-03 06:25:00,
2013-02-03 01:30:00,6.6,2.0,29.99,SSW,202,1.0,0.0,81,0.00,,CLR,-99.99,VWS V14.01,2013-02-03 06:30:00,
2013-02-03 01:35:00,6.6,2.0,29.99,SSW,202,1.0,0.0,81,0.00,,CLR,-99.99,VWS V14.01,2013-02-03 06:35:00,
2013-02-03 01:40:00,6.4,1.6,29.99,SSW,202,1.0,0.0,80,0.00,,CLR,-99.99,VWS V14.01,2013-02-03 06:40:00,
2013-02-03 01:45:00,6.0,1.2,29.99,SSW,202,1.0,0.0,80,0.00,,CLR,-99.99,VWS V14.01,2013-02-03 06:45:00,
2013-02-03 01:50:00,5.7,0.9,29.99,SSW,202,1.0,0.0,80,0.00,,CLR,-99.99,VWS V14.01,2013-02-03 06:50:00,
2013-02-03 01:56:00,5.5,0.7,29.99,SSW,202,1.0,0.0,80,0.00,,CLR,-99.99,VWS V14.01,2013-02-03 06:56:00,
2013-02-03 02:02:00,5.5,0.9,29.99,SSW,202,1.0,0.0,81,0.00,,CLR,-99.99,VWS V14.01,2013-02-03 07:02:00,
2013-02-03 02:07:00,5.7,1.1,29.99,SSW,202,1.0,0.0,81,0.00,,CLR,-99.99,VWS V14.01,2013-02-03 07:07:00,
2013-02-03 02:13:00,5.7,0.9,29.99,SSW,202,1.0,0.0,80,0.00,,CLR,-99.99,VWS V14.01,2013-02-03 07:13:00,
2013-02-03 02:19:00,5.5,0.7,29.99,SSW,202,1.0,0.0,80,0.00,,CLR,-99.99,VWS V14.01,2013-02-03 07:19:00,
2013-02-03 02:25:00,5.3,0.5,29.99,SSW,202,1.0,0.0,80,0.00,,CLR,-99.99,VWS V14.01,2013-02-03 07:25:00,
2013-02-03 02:30:00,5.3,0.5,29.99,SSW,202,1.0,0.0,80,0.00,,CLR,-99.99,VWS V14.01,2013-02-03 07:30:00,
2013-02-03 02:35:00,5.0,0.2,29.99,SSW,202,1.0,0.0,80,0.00,,CLR,-99.99,VWS V14.01,2013-02-03 07:35:00,
2013-02-03 02:40:00,5.0,0.2,29.98,SSW,202,1.0,0.0,80,0.00,,CLR,-99.99,VWS V14.01,2013-02-03 07:40:00,
2013-02-03 02:45:00,4.8,0.0,29.99,SSW,202,1.0,0.0,80,0.00,,CLR,-99.99,VWS V14.01,2013-02-03 07:45:00,
2013-02-03 02:50:00,4.8,0.0,29.99,SSW,202,1.0,0.0,80,0.00,,CLR,-99.99,VWS V14.01,2013-02-03 07:50:00,
2013-02-03 02:55:00,4.6,-0.2,29.99,SSW,202,1.0,0.0,80,0.00,,CLR,-99.99,VWS V14.01,2013-02-03 07:55:00,
2013-02-03 03:00:00,4.6,-0.2,29.98,SSW,202,1.0,0.0,80,0.00,,CLR,-99.99,VWS V14.01,2013-02-03 08:00:00,
2013-02-03 03:05:00,4.4,-0.4,29.98,SSW,202,1.0,0.0,80,0.00,,CLR,-99.99,VWS V14.01,2013-02-03 08:05:00,
2013-02-03 03:10:00,4.4,-0.4,29.98,SSW,202,1.0,0.0,80,0.00,,CLR,-99.99,VWS V14.01,2013-02-03 08:10:00,
2013-02-03 03:16:00,4.2,-0.6,29.98,SSW,202,1.0,0.0,80,0.00,,CLR,-99.99,VWS V14.01,2013-02-03 08:16:00,
2013-02-03 03:22:00,4.1,-0.7,29.98,SSW,202,1.0,0.0,80,0.00,,CLR,-99.99,VWS V14.01,2013-02-03 08:22:00,
2013-02-03 03:27:00,3.9,-0.9,29.98,SSW,202,1.0,0.0,80,0.00,,CLR,-99.99,VWS V14.01,2013-02-03 08:27:00,
2013-02-03 03:33:00,3.9,-0.9,29.98,SSW,202,1.0,0.0,80,0.00,,CLR,-99.99,VWS V14.01,2013-02-03 08:33:00,
2013-02-03 03:38:00,4.1,-0.4,29.98,SSW,202,1.0,0.0,81,0.00,,CLR,-99.99,VWS V14.01,2013-02-03 08:38:00,
2013-02-03 03:44:00,4.1,-0.7,29.97,SSW,202,1.0,0.0,80,0.00,,CLR,-99.99,VWS V14.01,2013-02-03 08:44:00,
2013-02-03 03:49:00,3.9,-0.9,29.97,SW,225,1.0,0.0,80,0.00,,CLR,-99.99,VWS V14.01,2013-02-03 08:49:00,
2013-02-03 03:55:00,3.9,-0.9,29.97,SW,225,1.0,0.0,80,0.00,,CLR,-99.99,VWS V14.01,2013-02-03 08:55:00,
2013-02-03 04:00:00,3.9,-0.9,29.97,SW,225,1.0,0.0,80,0.00,,CLR,-99.99,VWS V14.01,2013-02-03 09:00:00,
2013-02-03 04:05:00,3.7,-1.1,29.97,SW,225,1.0,0.0,80,0.00,,CLR,-99.99,VWS V14.01,2013-02-03 09:05:00,
2013-02-03 04:10:00,3.7,-1.1,29.97,SW,225,1.0,0.0,80,0.00,,CLR,-99.99,VWS V14.01,2013-02-03 09:10:00,
2013-02-03 04:15:00,3.5,-1.3,29.97,SW,225,1.0,0.0,80,0.00,,CLR,-99.99,VWS V14.01,2013-02-03 09:15:00,
2013-02-03 04:20:00,3.3,-1.5,29.97,SW,225,1.0,0.0,80,0.00,,CLR,-99.99,VWS V14.01,2013-02-03 09:20:00,
2013-02-03 04:25:00,3.3,-1.5,29.97,SW,225,1.0,0.0,80,0.00,,CLR,-99.99,VWS V14.01,2013-02-03 09:25:00,
2013-02-03 04:30:00,3.0,-1.8,29.97,SW,225,1.0,0.0,80,0.00,,CLR,-99.99,VWS V14.01,2013-02-03 09:30:00,
2013-02-03 04:35:00,3.2,-1.6,29.96,SW,225,1.0,0.0,80,0.00,,CLR,-99.99,VWS V14.01,2013-02-03 09:35:00,
2013-02-03 04:40:00,3.0,-1.8,29.96,SW,225,1.0,0.0,80,0.00,,CLR,-99.99,VWS V14.01,2013-02-03 09:40:00,
2013-02-03 04:45:00,3.0,-1.8,29.97,SW,225,1.0,0.0,80,0.00,,CLR,-99.99,VWS V14.01,2013-02-03 09:45:00,
2013-02-03 04:50:00,2.8,-2.0,29.97,SW,225,1.0,0.0,80,0.00,,CLR,-99.99,VWS V14.01,2013-02-03 09:50:00,
2013-02-03 04:55:00,3.0,-1.8,29.97,SW,225,1.0,0.0,80,0.00,,CLR,-99.99,VWS V14.01,2013-02-03 09:55:00,
2013-02-03 05:00:00,3.0,-1.8,29.97,SW,225,1.0,0.0,80,0.00,,CLR,-99.99,VWS V14.01,2013-02-03 10:00:00,
2013-02-03 05:05:00,3.3,-1.5,29.97,SW,225,1.0,0.0,80,0.00,,CLR,-99.99,VWS V14.01,2013-02-03 10:05:00,
2013-02-03 05:10:00,3.5,-1.0,29.96,SW,225,1.0,0.0,81,0.00,,CLR,-99.99,VWS V14.01,2013-02-03 10:10:00,
2013-02-03 05:15:00,3.9,-0.6,29.97,SW,225,1.0,0.0,81,0.00,,CLR,-99.99,VWS V14.01,2013-02-03 10:15:00,
2013-02-03 05:20:00,4.1,-0.4,29.96,SW,225,1.0,0.0,81,0.00,,CLR,-99.99,VWS V14.01,2013-02-03 10:20:00,
2013-02-03 05:25:00,4.4,-0.1,29.97,SW,225,1.0,0.0,81,0.00,,CLR,-99.99,VWS V14.01,2013-02-03 10:25:00,
2013-02-03 05:30:00,4.6,0.1,29.96,SW,225,1.0,0.0,81,0.00,,CLR,-99.99,VWS V14.01,2013-02-03 10:30:00,
2013-02-03 05:36:00,4.8,0.5,29.96,SW,225,1.0,0.0,82,0.00,,CLR,-99.99,VWS V14.01,2013-02-03 10:36:00,
2013-02-03 05:41:00,4.8,0.5,29.96,SW,225,1.0,0.0,82,0.00,,CLR,-99.99,VWS V14.01,2013-02-03 10:41:00,
2013-02-03 05:46:00,5.0,0.7,29.96,SW,225,1.0,0.0,82,0.00,,CLR,-99.99,VWS V14.01,2013-02-03 10:46:00,
2013-02-03 05:51:00,5.1,0.8,29.96,SW,225,1.0,0.0,82,0.00,,CLR,-99.99,VWS V14.01,2013-02-03 10:51:00,
2013-02-03 05:57:00,5.1,0.8,29.96,SW,225,1.0,0.0,82,0.00,,CLR,-99.99,VWS V14.01,2013-02-03 10:57:00,
2013-02-03 06:02:00,5.1,0.8,29.96,SW,225,1.0,0.0,82,0.00,,CLR,-99.99,VWS V14.01,2013-02-03 11:02:00,
2013-02-03 06:08:00,5.3,1.0,29.96,SW,225,1.0,0.0,82,0.00,,CLR,-99.99,VWS V14.01,2013-02-03 11:08:00,
2013-02-03 06:14:00,5.3,1.0,29.96,SW,225,1.0,0.0,82,0.00,,CLR,-99.99,VWS V14.01,2013-02-03 11:14:00,
2013-02-03 06:20:00,5.5,1.2,29.96,SW,225,1.0,0.0,82,0.00,,CLR,-99.99,VWS V14.01,2013-02-03 11:20:00,
2013-02-03 06:25:00,5.5,1.2,29.96,SW,225,1.0,0.0,82,0.00,,CLR,-99.99,VWS V14.01,2013-02-03 11:25:00,
2013-02-03 06:30:00,5.5,1.2,29.96,SW,225,1.0,0.0,82,0.00,,CLR,-99.99,VWS V14.01,2013-02-03 11:30:00,
2013-02-03 06:35:00,5.1,0.8,29.96,SW,225,1.0,0.0,82,0.00,,CLR,-99.99,VWS V14.01,2013-02-03 11:35:00,
2013-02-03 06:40:00,5.0,0.7,29.96,SW,225,1.0,0.0,82,0.00,,CLR,-99.99,VWS V14.01,2013-02-03 11:40:00,
2013-02-03 06:45:00,4.8,0.5,29.96,SW,225,1.0,0.0,82,0.00,,CLR,-99.99,VWS V14.01,2013-02-03 11:45:00,
2013-02-03 06:50:00,4.4,-0.1,29.96,SW,225,1.0,0.0,81,0.00,,CLR,-99.99,VWS V14.01,2013-02-03 11:50:00,
2013-02-03 06:55:00,4.2,-0.3,29.96,SW,225,1.0,0.0,81,0.00,,CLR,-99.99,VWS V14.01,2013-02-03 11:55:00,
2013-02-03 07:00:00,4.1,-0.4,29.96,SW,225,1.0,0.0,81,0.00,,CLR,-99.99,VWS V14.01,2013-02-03 12:00:00,
2013-02-03 07:05:00,3.9,-0.6,29.96,SW,225,1.0,0.0,81,0.00,,CLR,-99.99,VWS V14.01,2013-02-03 12:05:00,
2013-02-03 07:10:00,3.9,-0.6,29.96,SW,225,1.0,0.0,81,0.00,,CLR,-99.99,VWS V14.01,2013-02-03 12:10:00,
2013-02-03 07:15:00,3.9,-0.6,29.96,SW,225,1.0,0.0,81,0.00,,CLR,-99.99,VWS V14.01,2013-02-03 12:15:00,
2013-02-03 07:20:00,3.7,-0.8,29.96,SW,225,1.0,0.0,81,0.00,,CLR,-99.99,VWS V14.01,2013-02-03 12:20:00,
2013-02-03 07:25:00,3.9,-0.6,29.96,SW,225,1.0,0.0,81,0.00,,CLR,-99.99,VWS V14.01,2013-02-03 12:25:00,
2013-02-03 07:30:00,3.9,-0.6,29.96,SW,225,1.0,0.0,81,0.00,,CLR,-99.99,VWS V14.01,2013-02-03 12:30:00,
2013-02-03 07:35:00,3.9,-0.6,29.96,SW,225,1.0,0.0,81,0.00,,CLR,-99.99,VWS V14.01,2013-02-03 12:35:00,
2013-02-03 07:40:00,4.1,-0.4,29.96,SW,225,1.0,0.0,81,0.00,,CLR,-99.99,VWS V14.01,2013-02-03 12:40:00,
2013-02-03 07:45:00,4.2,-0.3,29.96,SW,225,1.0,0.0,81,0.00,,CLR,-99.99,VWS V14.01,2013-02-03 12:45:00,
2013-02-03 07:50:00,4.6,0.1,29.97,SW,225,1.0,0.0,81,0.00,,CLR,-99.99,VWS V14.01,2013-02-03 12:50:00,
2013-02-03 07:55:00,4.8,0.3,29.96,SW,225,1.0,0.0,81,0.00,,CLR,-99.99,VWS V14.01,2013-02-03 12:55:00,
2013-02-03 08:01:00,4.8,0.3,29.96,SW,225,1.0,0.0,81,0.00,,CLR,-99.99,VWS V14.01,2013-02-03 13:01:00,
2013-02-03 08:06:00,5.1,0.3,29.96,SW,225,1.0,0.0,80,0.00,,CLR,-99.99,VWS V14.01,2013-02-03 13:06:00,
2013-02-03 08:11:00,5.3,0.5,29.96,SW,225,1.0,0.0,80,0.00,,CLR,-99.99,VWS V14.01,2013-02-03 13:11:00,
2013-02-03 08:17:00,5.5,0.7,29.96,SW,225,1.0,0.0,80,0.00,,CLR,-99.99,VWS V14.01,2013-02-03 13:17:00,
2013-02-03 08:23:00,6.0,1.2,29.96,SW,225,1.0,0.0,80,0.00,,CLR,-99.99,VWS V14.01,2013-02-03 13:23:00,
2013-02-03 08:28:00,6.4,1.6,29.95,SW,225,1.0,0.0,80,0.00,,CLR,-99.99,VWS V14.01,2013-02-03 13:28:00,
2013-02-03 08:35:00,6.9,2.0,29.95,SW,225,1.0,0.0,80,0.00,,CLR,-99.99,VWS V14.01,2013-02-03 13:35:00,
2013-02-03 08:41:00,7.5,2.6,29.95,SW,225,1.0,0.0,80,0.00,,CLR,-99.99,VWS V14.01,2013-02-03 13:41:00,
2013-02-03 08:46:00,7.7,2.8,29.95,SW,225,1.0,0.0,80,0.00,,CLR,-99.99,VWS V14.01,2013-02-03 13:46:00,
2013-02-03 08:52:00,8.4,3.8,29.95,SW,225,1.0,0.0,81,0.00,,CLR,-99.99,VWS V14.01,2013-02-03 13:52:00,
2013-02-03 08:58:00,9.1,4.5,29.94,SW,225,1.0,0.0,81,0.00,,CLR,-99.99,VWS V14.01,2013-02-03 13:58:00,
2013-02-03 09:03:00,10.0,5.3,29.94,SW,225,1.0,0.0,81,0.00,,CLR,-99.99,VWS V14.01,2013-02-03 14:03:00,
2013-02-03 09:09:00,10.5,5.8,29.95,SW,225,1.0,0.0,81,0.00,,CLR,-99.99,VWS V14.01,2013-02-03 14:09:00,
2013-02-03 09:14:00,11.3,6.9,29.94,SW,225,1.0,0.0,82,0.00,,CLR,-99.99,VWS V14.01,2013-02-03 14:14:00,
2013-02-03 09:19:00,12.3,7.9,29.94,SW,225,1.0,0.0,82,0.00,,CLR,-99.99,VWS V14.01,2013-02-03 14:19:00,
2013-02-03 09:25:00,13.6,9.4,29.94,SW,225,1.0,0.0,83,0.00,,CLR,-99.99,VWS V14.01,2013-02-03 14:25:00,
2013-02-03 09:30:00,14.7,10.5,29.94,SW,225,1.0,0.0,83,0.00,,CLR,-99.99,VWS V14.01,2013-02-03 14:30:00,
2013-02-03 09:35:00,15.2,11.0,29.94,SW,225,1.0,0.0,83,0.00,,CLR,-99.99,VWS V14.01,2013-02-03 14:35:00,
2013-02-03 09:40:00,16.3,11.5,29.94,SW,225,1.0,0.0,81,0.00,,CLR,-99.99,VWS V14.01,2013-02-03 14:40:00,
2013-02-03 09:45:00,16.7,11.6,29.94,SW,225,1.0,0.0,80,0.00,,CLR,-99.99,VWS V14.01,2013-02-03 14:45:00,
2013-02-03 09:50:00,17.2,11.8,29.94,SW,225,1.0,0.0,79,0.00,,CLR,-99.99,VWS V14.01,2013-02-03 14:50:00,
2013-02-03 09:55:00,17.4,11.7,29.94,SW,225,1.0,0.0,78,0.00,,CLR,-99.99,VWS V14.01,2013-02-03 14:55:00,
2013-02-03 10:00:00,18.1,12.4,29.93,SW,225,1.0,0.0,78,0.00,,CLR,-99.99,VWS V14.01,2013-02-03 15:00:00,
2013-02-03 10:06:00,18.3,12.3,29.93,SW,225,1.0,0.0,77,0.00,,CLR,-99.99,VWS V14.01,2013-02-03 15:06:00,
2013-02-03 10:12:00,18.6,12.3,29.94,SW,225,1.0,0.0,76,0.00,,CLR,-99.99,VWS V14.01,2013-02-03 15:12:00,
2013-02-03 10:18:00,17.9,11.6,29.94,SW,225,1.0,0.0,76,0.00,,CLR,-99.99,VWS V14.01,2013-02-03 15:18:00,
2013-02-03 10:23:00,18.6,12.0,29.94,SW,225,1.0,0.0,75,0.00,,CLR,-99.99,VWS V14.01,2013-02-03 15:23:00,
2013-02-03 10:28:00,19.5,13.2,29.94,SW,225,1.0,0.0,76,0.00,,CLR,-99.99,VWS V14.01,2013-02-03 15:28:00,
2013-02-03 10:34:00,19.9,13.0,29.93,SW,225,1.0,0.0,74,0.00,,CLR,-99.99,VWS V14.01,2013-02-03 15:34:00,
2013-02-03 10:40:00,21.0,14.0,29.93,SW,225,1.0,0.0,74,0.00,,CLR,-99.99,VWS V14.01,2013-02-03 15:40:00,
2013-02-03 10:45:00,21.9,14.9,29.93,SSE,158,1.0,0.0,74,0.00,,CLR,-99.99,VWS V14.01,2013-02-03 15:45:00,
2013-02-03 10:50:00,23.0,15.6,29.93,SSE,158,1.0,0.0,73,0.00,,CLR,-99.99,VWS V14.01,2013-02-03 15:50:00,
2013-02-03 10:55:00,23.3,15.3,29.93,SSE,158,1.0,0.0,71,0.00,,CLR,-99.99,VWS V14.01,2013-02-03 15:55:00,
2013-02-03 11:00:00,23.1,15.1,29.92,SSE,158,1.0,0.0,71,0.00,,CLR,-99.99,VWS V14.01,2013-02-03 16:00:00,
2013-02-03 11:05:00,23.7,15.7,29.91,SSW,202,1.0,0.0,71,0.00,,CLR,-99.99,VWS V14.01,2013-02-03 16:05:00,
2013-02-03 11:10:00,23.3,14.6,29.91,SSW,202,1.0,0.0,69,0.00,,CLR,-99.99,VWS V14.01,2013-02-03 16:10:00,
2013-02-03 11:15:00,23.7,15.0,29.91,SSW,202,1.0,0.0,69,0.00,,CLR,-99.99,VWS V14.01,2013-02-03 16:15:00,
2013-02-03 11:20:00,24.4,14.7,29.91,East,90,1.0,0.0,66,0.00,,CLR,-99.99,VWS V14.01,2013-02-03 16:20:00,
2013-02-03 11:25:00,24.4,14.7,29.91,SW,225,1.6,1.6,66,0.00,,CLR,-99.99,VWS V14.01,2013-02-03 16:25:00,
2013-02-03 11:30:00,24.9,15.9,29.91,SW,225,1.0,0.0,68,0.00,,CLR,-99.99,VWS V14.01,2013-02-03 16:30:00,
2013-02-03 11:36:00,25.5,15.7,29.90,South,180,1.0,0.0,66,0.00,,CLR,-99.99,VWS V14.01,2013-02-03 16:36:00,
2013-02-03 11:42:00,25.5,15.7,29.89,South,180,1.0,0.0,66,0.00,,CLR,-99.99,VWS V14.01,2013-02-03 16:42:00,
2013-02-03 11:48:00,26.4,16.6,29.89,South,180,1.0,0.0,66,0.00,,CLR,-99.99,VWS V14.01,2013-02-03 16:48:00,
2013-02-03 11:54:00,27.1,16.9,29.89,South,180,1.0,0.0,65,0.00,,CLR,-99.99,VWS V14.01,2013-02-03 16:54:00,
2013-02-03 11:59:00,27.1,16.2,29.89,SSW,202,1.0,0.0,63,0.00,,CLR,-99.99,VWS V14.01,2013-02-03 16:59:00,
2013-02-03 12:05:00,26.9,15.3,29.88,South,180,1.0,0.0,61,0.00,,CLR,-99.99,VWS V14.01,2013-02-03 17:05:00,
2013-02-03 12:10:00,27.1,15.1,29.88,SE,135,1.0,0.0,60,0.00,,CLR,-99.99,VWS V14.01,2013-02-03 17:10:00,
2013-02-03 12:15:00,27.3,15.6,29.88,South,180,1.0,0.0,61,0.00,,CLR,-99.99,VWS V14.01,2013-02-03 17:15:00,
2013-02-03 12:20:00,27.5,15.1,29.87,South,180,1.0,0.0,59,0.00,,CLR,-99.99,VWS V14.01,2013-02-03 17:20:00,
2013-02-03 12:25:00,27.1,14.3,29.86,East,90,1.0,0.0,58,0.00,,CLR,-99.99,VWS V14.01,2013-02-03 17:25:00,
2013-02-03 12:30:00,27.3,14.1,29.87,East,90,1.0,0.0,57,0.00,,CLR,-99.99,VWS V14.01,2013-02-03 17:30:00,
2013-02-03 12:35:00,27.6,14.4,29.86,East,90,1.0,0.0,57,0.00,,CLR,-99.99,VWS V14.01,2013-02-03 17:35:00,
2013-02-03 12:40:00,28.0,14.8,29.86,ESE,112,1.0,0.0,57,0.00,,CLR,-99.99,VWS V14.01,2013-02-03 17:40:00,
2013-02-03 12:45:00,28.2,14.9,29.86,ESE,112,1.0,0.0,57,0.00,,CLR,-99.99,VWS V14.01,2013-02-03 17:45:00,
2013-02-03 12:50:00,28.9,16.0,29.86,SE,135,1.0,0.0,58,0.00,,CLR,-99.99,VWS V14.01,2013-02-03 17:50:00,
2013-02-03 12:55:00,29.3,16.0,29.86,South,180,1.0,0.0,57,0.00,,CLR,-99.99,VWS V14.01,2013-02-03 17:55:00,
2013-02-03 13:00:00,29.6,16.2,29.85,South,180,1.0,0.0,57,0.00,,CLR,-99.99,VWS V14.01,2013-02-03 18:00:00,
2013-02-03 13:05:00,29.4,15.7,29.85,ESE,112,1.0,0.0,56,0.00,,CLR,-99.99,VWS V14.01,2013-02-03 18:05:00,
2013-02-03 13:10:00,29.1,14.5,29.85,ESE,112,1.0,0.0,54,0.00,,CLR,-99.99,VWS V14.01,2013-02-03 18:10:00,
2013-02-03 13:15:00,29.3,15.1,29.84,SE,135,1.0,0.0,55,0.00,,CLR,-99.99,VWS V14.01,2013-02-03 18:15:00,
2013-02-03 13:21:00,28.2,12.4,29.84,SE,135,1.0,0.0,51,0.00,,CLR,-99.99,VWS V14.01,2013-02-03 18:21:00,
2013-02-03 13:27:00,27.6,12.7,29.83,WSW,248,1.0,0.0,53,0.00,,CLR,-99.99,VWS V14.01,2013-02-03 18:27:00,
2013-02-03 13:33:00,28.2,13.7,29.83,WSW,248,1.0,0.0,54,0.00,,CLR,-99.99,VWS V14.01,2013-02-03 18:33:00,
2013-02-03 13:38:00,26.7,10.1,29.83,WNW,292,1.0,0.0,49,0.00,,CLR,-99.99,VWS V14.01,2013-02-03 18:38:00,
2013-02-03 13:44:00,26.4,10.7,29.83,WNW,292,1.0,0.0,51,0.00,,CLR,-99.99,VWS V14.01,2013-02-03 18:44:00,
2013-02-03 13:50:00,28.2,12.9,29.83,WNW,292,1.0,0.0,52,0.00,,CLR,-99.99,VWS V14.01,2013-02-03 18:50:00,
2013-02-03 13:55:00,28.9,13.5,29.83,WNW,292,1.0,0.0,52,0.00,,CLR,-99.99,VWS V14.01,2013-02-03 18:55:00,
2013-02-03 14:01:00,29.3,13.4,29.82,West,270,1.0,0.0,51,0.00,,CLR,-99.99,VWS V14.01,2013-02-03 19:01:00,
2013-02-03 14:06:00,28.4,10.8,29.81,West,270,1.0,0.0,47,0.00,,CLR,-99.99,VWS V14.01,2013-02-03 19:06:00,
2013-02-03 14:11:00,27.5,10.4,29.81,WNW,292,1.0,0.0,48,0.00,,CLR,-99.99,VWS V14.01,2013-02-03 19:11:00,
2013-02-03 14:17:00,27.6,10.5,29.81,WNW,292,1.0,0.0,48,0.00,,CLR,-99.99,VWS V14.01,2013-02-03 19:17:00,
2013-02-03 14:23:00,26.4,8.4,29.81,WNW,292,1.0,0.0,46,0.00,,CLR,-99.99,VWS V14.01,2013-02-03 19:23:00,
2013-02-03 14:28:00,26.2,9.2,29.81,WNW,292,1.0,0.0,48,0.00,,CLR,-99.99,VWS V14.01,2013-02-03 19:28:00,
2013-02-03 14:34:00,25.7,8.3,29.81,NW,315,1.0,0.0,47,0.00,,CLR,-99.99,VWS V14.01,2013-02-03 19:34:00,
2013-02-03 14:40:00,25.5,8.1,29.81,NW,315,1.0,0.0,47,0.00,,CLR,-99.99,VWS V14.01,2013-02-03 19:40:00,
2013-02-03 14:45:00,25.3,7.9,29.81,NW,315,1.0,0.0,47,0.00,,CLR,-99.99,VWS V14.01,2013-02-03 19:45:00,
2013-02-03 14:50:00,24.6,7.7,29.81,NNW,338,1.0,0.0,48,0.00,,CLR,-99.99,VWS V14.01,2013-02-03 19:50:00,
2013-02-03 14:55:00,24.6,8.2,29.81,NNW,338,1.0,0.0,49,0.00,,CLR,-99.99,VWS V14.01,2013-02-03 19:55:00,
2013-02-03 15:00:00,24.9,8.9,29.81,ENE,68,1.0,0.0,50,0.00,,CLR,-99.99,VWS V14.01,2013-02-03 20:00:00,
2013-02-03 15:05:00,24.9,8.9,29.81,ENE,68,1.0,0.0,50,0.00,,CLR,-99.99,VWS V14.01,2013-02-03 20:05:00,
2013-02-03 15:10:00,25.3,10.1,29.81,ENE,68,1.0,0.0,52,0.00,,CLR,-99.99,VWS V14.01,2013-02-03 20:10:00,
2013-02-03 15:15:00,25.7,10.1,29.81,ENE,68,1.0,0.0,51,0.00,,CLR,-99.99,VWS V14.01,2013-02-03 20:15:00,
2013-02-03 15:20:00,25.1,9.1,29.81,ENE,68,1.0,0.0,50,0.00,,CLR,-99.99,VWS V14.01,2013-02-03 20:20:00,
2013-02-03 15:26:00,25.1,10.0,29.80,ENE,68,1.0,0.0,52,0.00,,CLR,-99.99,VWS V14.01,2013-02-03 20:26:00,
2013-02-03 15:32:00,25.3,10.1,29.80,ENE,68,1.0,0.0,52,0.00,,CLR,-99.99,VWS V14.01,2013-02-03 20:32:00,
2013-02-03 15:37:00,24.9,9.4,29.80,ENE,68,1.0,0.0,51,0.00,,CLR,-99.99,VWS V14.01,2013-02-03 20:37:00,
2013-02-03 15:43:00,24.6,9.1,29.80,ENE,68,1.0,0.0,51,0.00,,CLR,-99.99,VWS V14.01,2013-02-03 20:43:00,
2013-02-03 15:49:00,24.6,9.9,29.80,ENE,68,1.0,0.0,53,0.00,,CLR,-99.99,VWS V14.01,2013-02-03 20:49:00,
2013-02-03 15:55:00,23.9,8.4,29.79,ENE,68,1.0,0.0,51,0.00,,CLR,-99.99,VWS V14.01,2013-02-03 20:55:00,
2013-02-03 16:00:00,23.5,8.1,29.79,ENE,68,1.0,0.0,51,0.00,,CLR,-99.99,VWS V14.01,2013-02-03 21:00:00,
2013-02-03 16:05:00,23.5,7.6,29.78,ENE,68,1.0,0.0,50,0.00,,CLR,-99.99,VWS V14.01,2013-02-03 21:05:00,
2013-02-03 16:10:00,23.0,8.0,29.79,ENE,68,1.0,0.0,52,0.00,,CLR,-99.99,VWS V14.01,2013-02-03 21:10:00,
2013-02-03 16:15:00,22.6,8.5,29.79,NNE,22,1.0,0.0,54,0.00,,CLR,-99.99,VWS V14.01,2013-02-03 21:15:00,
2013-02-03 16:20:00,22.4,8.7,29.79,NNE,22,1.0,0.0,55,0.00,,CLR,-99.99,VWS V14.01,2013-02-03 21:20:00,
2013-02-03 16:25:00,22.2,8.5,29.79,NNE,22,1.0,0.0,55,0.00,,CLR,-99.99,VWS V14.01,2013-02-03 21:25:00,
2013-02-03 16:30:00,21.9,9.0,29.79,NNE,22,1.0,0.0,57,0.00,,CLR,-99.99,VWS V14.01,2013-02-03 21:30:00,
2013-02-03 16:35:00,21.7,9.2,29.78,NNE,22,1.0,0.0,58,0.00,,CLR,-99.99,VWS V14.01,2013-02-03 21:35:00,
2013-02-03 16:40:00,21.5,8.6,29.78,NNE,22,1.0,0.0,57,0.00,,CLR,-99.99,VWS V14.01,2013-02-03 21:40:00,
2013-02-03 16:45:00,21.3,9.2,29.78,NNE,22,1.0,0.0,59,0.00,,CLR,-99.99,VWS V14.01,2013-02-03 21:45:00,
2013-02-03 16:50:00,21.2,9.1,29.78,NNE,22,1.0,0.0,59,0.00,,CLR,-99.99,VWS V14.01,2013-02-03 21:50:00,
2013-02-03 16:55:00,21.0,9.3,29.78,NNE,22,1.0,0.0,60,0.00,,CLR,-99.99,VWS V14.01,2013-02-03 21:55:00,
2013-02-03 17:00:00,20.8,9.1,29.78,NNE,22,1.0,0.0,60,0.00,,CLR,-99.99,VWS V14.01,2013-02-03 22:00:00,
2013-02-03 17:05:00,20.4,8.7,29.78,NNE,22,1.0,0.0,60,0.00,,CLR,-99.99,VWS V14.01,2013-02-03 22:05:00,
2013-02-03 17:10:00,20.3,8.6,29.78,NNE,22,1.0,0.0,60,0.00,,CLR,-99.99,VWS V14.01,2013-02-03 22:10:00,
2013-02-03 17:15:00,19.9,8.6,29.78,NNE,22,1.0,0.0,61,0.00,,CLR,-99.99,VWS V14.01,2013-02-03 22:15:00,
2013-02-03 17:20:00,19.7,8.4,29.78,NNE,22,1.0,0.0,61,0.00,,CLR,-99.99,VWS V14.01,2013-02-03 22:20:00,
2013-02-03 17:25:00,19.5,8.6,29.78,NNE,22,1.0,0.0,62,0.00,,CLR,-99.99,VWS V14.01,2013-02-03 22:25:00,
2013-02-03 17:30:00,19.4,8.5,29.78,NNE,22,1.0,0.0,62,0.00,,CLR,-99.99,VWS V14.01,2013-02-03 22:30:00,
2013-02-03 17:35:00,19.2,8.7,29.78,NNE,22,1.0,0.0,63,0.00,,CLR,-99.99,VWS V14.01,2013-02-03 22:35:00,
2013-02-03 17:40:00,19.0,8.8,29.78,NNE,22,1.0,0.0,64,0.00,,CLR,-99.99,VWS V14.01,2013-02-03 22:40:00,
2013-02-03 17:45:00,18.5,8.7,29.78,NNE,22,1.0,0.0,65,0.00,,CLR,-99.99,VWS V14.01,2013-02-03 22:45:00,
2013-02-03 17:50:00,18.3,8.9,29.78,NNE,22,1.0,0.0,66,0.00,,CLR,-99.99,VWS V14.01,2013-02-03 22:50:00,
2013-02-03 17:55:00,18.3,9.2,29.78,NNE,22,1.0,0.0,67,0.00,,CLR,-99.99,VWS V14.01,2013-02-03 22:55:00,
2013-02-03 18:00:00,18.5,10.0,29.78,NNE,22,1.0,0.0,69,0.00,,CLR,-99.99,VWS V14.01,2013-02-03 23:00:00,
2013-02-03 18:06:00,18.3,9.9,29.78,NNE,22,1.0,0.0,69,0.00,,CLR,-99.99,VWS V14.01,2013-02-03 23:06:00,
2013-02-03 18:11:00,17.9,9.5,29.78,NNE,22,1.0,0.0,69,0.00,,CLR,-99.99,VWS V14.01,2013-02-03 23:11:00,
2013-02-03 18:16:00,17.9,9.8,29.78,NNE,22,1.0,0.0,70,0.00,,CLR,-99.99,VWS V14.01,2013-02-03 23:16:00,
2013-02-03 18:21:00,17.7,9.6,29.78,NNE,22,1.0,0.0,70,0.00,,CLR,-99.99,VWS V14.01,2013-02-03 23:21:00,
2013-02-03 18:27:00,17.2,9.1,29.78,NNE,22,1.0,0.0,70,0.00,,CLR,-99.99,VWS V14.01,2013-02-03 23:27:00,
2013-02-03 18:32:00,16.7,8.9,29.78,NNE,22,1.0,0.0,71,0.00,,CLR,-99.99,VWS V14.01,2013-02-03 23:32:00,
2013-02-03 18:38:00,16.3,8.6,29.77,NNE,22,1.0,0.0,71,0.00,,CLR,-99.99,VWS V14.01,2013-02-03 23:38:00,
2013-02-03 18:44:00,16.1,8.7,29.77,NNE,22,1.0,0.0,72,0.00,,CLR,-99.99,VWS V14.01,2013-02-03 23:44:00,
2013-02-03 18:49:00,15.9,8.2,29.77,NNE,22,1.0,0.0,71,0.00,,CLR,-99.99,VWS V14.01,2013-02-03 23:49:00,
2013-02-03 18:54:00,15.6,8.2,29.77,NNE,22,1.0,0.0,72,0.00,,CLR,-99.99,VWS V14.01,2013-02-03 23:54:00,
2013-02-03 18:59:00,15.4,8.0,29.77,NNE,22,1.0,0.0,72,0.00,,CLR,-99.99,VWS V14.01,2013-02-03 23:59:00,
2013-02-03 19:05:00,15.2,8.1,29.77,NNE,22,1.0,0.0,73,0.00,,CLR,-99.99,VWS V14.01,2013-02-04 00:05:00,
2013-02-03 19:10:00,14.9,7.8,29.77,NNE,22,1.0,0.0,73,0.00,,CLR,-99.99,VWS V14.01,2013-02-04 00:10:00,
2013-02-03 19:15:00,14.5,7.4,29.77,NNE,22,1.0,0.0,73,0.00,,CLR,-99.99,VWS V14.01,2013-02-04 00:15:00,
2013-02-03 19:20:00,14.1,7.3,29.76,NNE,22,1.0,0.0,74,0.00,,CLR,-99.99,VWS V14.01,2013-02-04 00:20:00,
2013-02-03 19:26:00,14.1,7.3,29.76,NNE,22,1.0,0.0,74,0.00,,CLR,-99.99,VWS V14.01,2013-02-04 00:26:00,
2013-02-03 19:32:00,13.8,7.1,29.76,NNE,22,1.0,0.0,74,0.00,,CLR,-99.99,VWS V14.01,2013-02-04 00:32:00,
2013-02-03 19:37:00,13.6,6.9,29.76,NNE,22,1.0,0.0,74,0.00,,CLR,-99.99,VWS V14.01,2013-02-04 00:37:00,
2013-02-03 19:43:00,13.2,6.8,29.76,NNE,22,1.0,0.0,75,0.00,,CLR,-99.99,VWS V14.01,2013-02-04 00:43:00,
2013-02-03 19:49:00,13.2,6.8,29.76,NNE,22,1.0,0.0,75,0.00,,CLR,-99.99,VWS V14.01,2013-02-04 00:49:00,
2013-02-03 19:55:00,13.2,7.1,29.76,NNE,22,1.0,0.0,76,0.00,,CLR,-99.99,VWS V14.01,2013-02-04 00:55:00,
2013-02-03 20:00:00,13.1,7.0,29.76,NNE,22,1.0,0.0,76,0.00,,CLR,-99.99,VWS V14.01,2013-02-04 01:00:00,
2013-02-03 20:05:00,12.9,7.1,29.76,NNE,22,1.0,0.0,77,0.00,,CLR,-99.99,VWS V14.01,2013-02-04 01:05:00,
2013-02-03 20:10:00,12.7,6.9,29.76,NNE,22,1.0,0.0,77,0.00,,CLR,-99.99,VWS V14.01,2013-02-04 01:10:00,
2013-02-03 20:15:00,12.3,6.2,29.77,NNE,22,1.0,0.0,76,0.00,,CLR,-99.99,VWS V14.01,2013-02-04 01:15:00,
2013-02-03 20:21:00,12.2,6.1,29.76,NNE,22,1.0,0.0,76,0.00,,CLR,-99.99,VWS V14.01,2013-02-04 01:21:00,
2013-02-03 20:27:00,11.8,5.7,29.76,NNE,22,1.0,0.0,76,0.00,,CLR,-99.99,VWS V14.01,2013-02-04 01:27:00,
2013-02-03 20:32:00,11.6,5.5,29.77,NNE,22,1.0,0.0,76,0.00,,CLR,-99.99,VWS V14.01,2013-02-04 01:32:00,
2013-02-03 20:38:00,11.4,5.6,29.77,NNE,22,1.0,0.0,77,0.00,,CLR,-99.99,VWS V14.01,2013-02-04 01:38:00,
2013-02-03 20:44:00,11.4,5.6,29.76,NNE,22,1.0,0.0,77,0.00,,CLR,-99.99,VWS V14.01,2013-02-04 01:44:00,
2013-02-03 20:50:00,11.4,5.6,29.77,NW,315,1.0,0.0,77,0.00,,CLR,-99.99,VWS V14.01,2013-02-04 01:50:00,
2013-02-03 20:55:00,11.4,5.6,29.77,NW,315,1.0,0.0,77,0.00,,CLR,-99.99,VWS V14.01,2013-02-04 01:55:00,
2013-02-03 21:00:00,11.4,5.6,29.77,NW,315,1.0,0.0,77,0.00,,CLR,-99.99,VWS V14.01,2013-02-04 02:00:00,
2013-02-03 21:05:00,11.6,5.8,29.76,NW,315,1.0,0.0,77,0.00,,CLR,-99.99,VWS V14.01,2013-02-04 02:05:00,
2013-02-03 21:10:00,11.8,6.0,29.77,NW,315,1.0,0.0,77,0.00,,CLR,-99.99,VWS V14.01,2013-02-04 02:10:00,
2013-02-03 21:15:00,11.8,6.0,29.77,NW,315,1.0,0.0,77,0.00,,CLR,-99.99,VWS V14.01,2013-02-04 02:15:00,
2013-02-03 21:20:00,12.0,6.5,29.76,NW,315,1.0,0.0,78,0.00,,CLR,-99.99,VWS V14.01,2013-02-04 02:20:00,
2013-02-03 21:25:00,12.0,6.5,29.76,NW,315,1.0,0.0,78,0.00,,CLR,-99.99,VWS V14.01,2013-02-04 02:25:00,
2013-02-03 21:30:00,12.0,6.5,29.76,NW,315,1.0,0.0,78,0.00,,CLR,-99.99,VWS V14.01,2013-02-04 02:30:00,
2013-02-03 21:35:00,12.0,6.5,29.76,NW,315,1.0,0.0,78,0.00,,CLR,-99.99,VWS V14.01,2013-02-04 02:35:00,
2013-02-03 21:40:00,12.0,6.5,29.76,NW,315,1.0,0.0,78,0.00,,CLR,-99.99,VWS V14.01,2013-02-04 02:40:00,
2013-02-03 21:45:00,12.2,6.9,29.76,NW,315,1.0,0.0,79,0.00,,CLR,-99.99,VWS V14.01,2013-02-04 02:45:00,
2013-02-03 21:50:00,12.3,7.0,29.75,NW,315,1.0,0.0,79,0.00,,CLR,-99.99,VWS V14.01,2013-02-04 02:50:00,
2013-02-03 21:55:00,12.3,6.8,29.75,NW,315,1.0,0.0,78,0.00,,CLR,-99.99,VWS V14.01,2013-02-04 02:55:00,
2013-02-03 22:00:00,12.5,7.2,29.75,NW,315,1.0,0.0,79,0.00,,CLR,-99.99,VWS V14.01,2013-02-04 03:00:00,
2013-02-03 22:05:00,12.5,7.2,29.75,NW,315,1.0,0.0,79,0.00,,CLR,-99.99,VWS V14.01,2013-02-04 03:05:00,
2013-02-03 22:10:00,12.7,7.4,29.75,NW,315,1.0,0.0,79,0.00,,CLR,-99.99,VWS V14.01,2013-02-04 03:10:00,
2013-02-03 22:15:00,12.7,7.4,29.74,NW,315,1.0,0.0,79,0.00,,CLR,-99.99,VWS V14.01,2013-02-04 03:15:00,
2013-02-03 22:20:00,12.7,7.4,29.74,NW,315,1.0,0.0,79,0.00,,CLR,-99.99,VWS V14.01,2013-02-04 03:20:00,
2013-02-03 22:25:00,12.9,7.6,29.74,NW,315,1.0,0.0,79,0.00,,CLR,-99.99,VWS V14.01,2013-02-04 03:25:00,
2013-02-03 22:30:00,12.9,7.6,29.73,NW,315,1.0,0.0,79,0.00,,CLR,-99.99,VWS V14.01,2013-02-04 03:30:00,
2013-02-03 22:35:00,12.9,7.6,29.74,NW,315,1.0,0.0,79,0.00,,CLR,-99.99,VWS V14.01,2013-02-04 03:35:00,
2013-02-03 22:40:00,13.2,8.2,29.73,NW,315,1.0,0.0,80,0.00,,CLR,-99.99,VWS V14.01,2013-02-04 03:40:00,
2013-02-03 22:45:00,13.6,8.6,29.73,NW,315,1.0,0.0,80,0.00,,CLR,-99.99,VWS V14.01,2013-02-04 03:45:00,
2013-02-03 22:50:00,13.6,8.9,29.73,NW,315,1.0,0.0,81,0.00,,CLR,-99.99,VWS V14.01,2013-02-04 03:50:00,
2013-02-03 22:55:00,13.8,9.1,29.73,NW,315,1.0,0.0,81,0.00,,CLR,-99.99,VWS V14.01,2013-02-04 03:55:00,
2013-02-03 23:00:00,13.8,9.1,29.72,NW,315,1.0,0.0,81,0.00,,CLR,-99.99,VWS V14.01,2013-02-04 04:00:00,
2013-02-03 23:05:00,13.8,9.1,29.73,NW,315,1.0,0.0,81,0.00,,CLR,-99.99,VWS V14.01,2013-02-04 04:05:00,
2013-02-03 23:11:00,13.8,9.1,29.72,NW,315,1.0,0.0,81,0.00,,CLR,-99.99,VWS V14.01,2013-02-04 04:11:00,
2013-02-03 23:17:00,13.6,8.6,29.72,NW,315,1.0,0.0,80,0.00,,CLR,-99.99,VWS V14.01,2013-02-04 04:17:00,
2013-02-03 23:23:00,13.6,8.6,29.71,NW,315,1.0,0.0,80,0.00,,CLR,-99.99,VWS V14.01,2013-02-04 04:23:00,
2013-02-03 23:29:00,13.6,8.6,29.71,NW,315,1.0,0.0,80,0.00,,CLR,-99.99,VWS V14.01,2013-02-04 04:29:00,
2013-02-03 23:34:00,13.6,8.6,29.72,NW,315,1.0,0.0,80,0.00,,CLR,-99.99,VWS V14.01,2013-02-04 04:34:00,
2013-02-03 23:40:00,13.6,8.6,29.71,NW,315,1.0,0.0,80,0.00,,CLR,-99.99,VWS V14.01,2013-02-04 04:40:00,
2013-02-03 23:45:00,13.6,8.6,29.72,NW,315,1.0,0.0,80,0.00,,CLR,-99.99,VWS V14.01,2013-02-04 04:45:00,
2013-02-03 23:50:00,13.6,8.6,29.71,NW,315,1.0,0.0,80,0.00,,CLR,-99.99,VWS V14.01,2013-02-04 04:50:00,
2013-02-03 23:55:00,13.6,8.6,29.71,NW,315,1.0,0.0,80,0.00,,CLR,-99.99,VWS V14.01,2013-02-04 04:55:00,